| time (UTC) | temp F | wind direction | speed MPH | gust MPH | rain 1hr in | rain 24hr in | rain mn in | humidity % | barometer mb |
| 20260905195521 | 80 | 0 | 0.0 | 0.0 | 0.00 | 0.00 | 0.00 | 66 | 1019.6 |
| 20260905190017 | 78 | 0 | 4.0 | 8.0 | 0.00 | 0.00 | 0.00 | 71 | 1019.9 |
| 20260905175012 | 76 | 23 | 4.0 | 7.0 | 0.00 | 0.00 | 0.00 | 79 | 1020.4 |
| 20260905172510 | 75 | 159 | 4.0 | 6.0 | 0.00 | 0.00 | 0.00 | 83 | 1020.5 |
| 20260905165508 | 73 | 242 | 4.0 | 7.0 | 0.00 | 0.00 | 0.00 | 89 | 1020.5 |
| 20260905163959 | 72 | 59 | 3.0 | 6.0 | 0.00 | 0.00 | 0.00 | 93 | 1020.3 |
| 20260905153954 | 67 | 0 | 0.0 | 0.0 | 0.00 | 0.00 | 0.00 | 100 | 1021.0 |
| 20260905152951 | 67 | 340 | 2.0 | 3.0 | 0.00 | 0.00 | 0.00 | 100 | 1021.1 |
| 20260905151951 | 67 | 356 | 3.0 | 4.0 | 0.00 | 0.00 | 0.00 | 100 | 1020.9 |
| 20260905140945 | 65 | 20 | 4.0 | 6.0 | 0.00 | 0.00 | 0.00 | 100 | 1020.4 |
| 20260905135944 | 65 | 11 | 4.0 | 7.0 | 0.00 | 0.00 | 0.00 | 100 | 1020.4 |
| 20260905134443 | 65 | 0 | 0.0 | 0.0 | 0.00 | 0.00 | 0.00 | 100 | 1020.6 |
| 20260905133943 | 64 | 10 | 3.0 | 3.0 | 0.00 | 0.00 | 0.00 | 100 | 1020.5 |
| 20260905133443 | 64 | 332 | 5.0 | 7.0 | 0.00 | 0.00 | 0.00 | 100 | 1020.4 |
| 20260905131441 | 64 | 0 | 0.0 | 0.0 | 0.00 | 0.00 | 0.00 | 100 | 1019.9 |
| 20260905122442 | 64 | 10 | 5.0 | 8.0 | 0.00 | 0.00 | 0.00 | 100 | 1019.2 |
| 20260905120437 | 63 | 14 | 6.0 | 8.0 | 0.00 | 0.00 | 0.00 | 100 | 1019.2 |
| 20260905115937 | 63 | 7 | 6.0 | 8.0 | 0.00 | 0.00 | 0.00 | 100 | 1019.1 |
| 20260905112932 | 63 | 0 | 0.0 | 0.0 | 0.00 | 0.00 | 0.00 | 100 | 1018.9 |
| 20260905112431 | 63 | 75 | 2.0 | 4.0 | 0.00 | 0.00 | 0.00 | 100 | 1019.1 |
| 20260905105428 | 63 | 0 | 0.0 | 0.0 | 0.00 | 0.00 | 0.00 | 100 | 1018.8 |
| 20260905101421 | 63 | 7 | 3.0 | 5.0 | 0.00 | 0.00 | 0.00 | 100 | 1018.4 |
| 20260905095418 | 63 | 17 | 3.0 | 5.0 | 0.00 | 0.00 | 0.00 | 100 | 1017.8 |
| 20260905094918 | 63 | 73 | 3.0 | 5.0 | 0.00 | 0.00 | 0.00 | 100 | 1017.6 |
| 20260905093417 | 64 | 72 | 4.0 | 7.0 | 0.00 | 0.00 | 0.00 | 100 | 1017.7 |
| 20260905085415 | 64 | 11 | 5.0 | 6.0 | 0.00 | 0.00 | 0.00 | 100 | 1018.3 |
| 20260905081409 | 64 | 49 | 1.0 | 3.0 | 0.00 | 0.00 | 0.00 | 100 | 1018.7 |
| 20260905080409 | 64 | 89 | 3.0 | 5.0 | 0.00 | 0.00 | 0.00 | 100 | 1018.7 |
| 20260905075408 | 64 | 0 | 0.0 | 0.0 | 0.00 | 0.00 | 0.00 | 100 | 1018.5 |
| 20260905073901 | 64 | 14 | 4.0 | 7.0 | 0.00 | 0.00 | 0.00 | 100 | 1018.6 |
| 20260905071849 | 64 | 79 | 4.0 | 7.0 | 0.00 | 0.00 | 0.00 | 100 | 1018.5 |
| 20260905070344 | 65 | 28 | 3.0 | 6.0 | 0.00 | 0.00 | 0.00 | 99 | 1018.5 |
| 20260905060839 | 65 | 15 | 5.0 | 7.0 | 0.00 | 0.00 | 0.00 | 98 | 1018.6 |
| 20260905054337 | 65 | 11 | 6.0 | 8.0 | 0.00 | 0.00 | 0.00 | 97 | 1018.6 |
| 20260905052833 | 65 | 10 | 6.0 | 9.0 | 0.00 | 0.00 | 0.00 | 97 | 1018.5 |
| 20260905051332 | 65 | 3 | 5.0 | 8.0 | 0.00 | 0.00 | 0.00 | 96 | 1018.3 |
| 20260905041328 | 65 | 69 | 3.0 | 5.0 | 0.00 | 0.00 | 0.00 | 94 | 1018.2 |
| 20260905040827 | 66 | 48 | 2.0 | 5.0 | 0.00 | 0.00 | 0.00 | 93 | 1018.1 |
| 20260905040327 | 66 | 0 | 0.0 | 0.0 | 0.00 | 0.00 | 0.00 | 93 | 1018.2 |
| 20260905035326 | 66 | 25 | 3.0 | 6.0 | 0.00 | 0.00 | 0.00 | 92 | 1018.2 |
| 20260905034826 | 66 | 44 | 5.0 | 9.0 | 0.00 | 0.00 | 0.00 | 92 | 1018.2 |
| 20260905033825 | 66 | 27 | 7.0 | 10.0 | 0.00 | 0.00 | 0.00 | 91 | 1018.3 |
| 20260905032825 | 67 | 20 | 6.0 | 8.0 | 0.00 | 0.00 | 0.00 | 91 | 1018.1 |
| 20260905025323 | 68 | 42 | 5.0 | 7.0 | 0.00 | 0.00 | 0.00 | 87 | 1018.0 |
| 20260905022314 | 70 | 328 | 4.0 | 5.0 | 0.00 | 0.00 | 0.00 | 83 | 1017.5 |
| 20260905021814 | 70 | 30 | 6.0 | 8.0 | 0.00 | 0.00 | 0.00 | 83 | 1017.7 |
| 20260905020311 | 71 | 69 | 3.0 | 5.0 | 0.00 | 0.00 | 0.00 | 80 | 1017.4 |
| 20260905013806 | 73 | 17 | 6.0 | 10.0 | 0.00 | 0.00 | 0.00 | 77 | 1017.3 |
| 20260905013306 | 74 | 10 | 6.0 | 11.0 | 0.00 | 0.00 | 0.00 | 76 | 1017.2 |
| 20260905012306 | 74 | 13 | 6.0 | 11.0 | 0.00 | 0.00 | 0.00 | 75 | 1017.0 |
| 20260905011305 | 76 | 41 | 3.0 | 5.0 | 0.00 | 0.00 | 0.00 | 74 | 1016.8 |
| 20260905004804 | 78 | 21 | 4.0 | 6.0 | 0.00 | 0.00 | 0.00 | 70 | 1016.6 |
| 20260905000801 | 80 | 30 | 4.0 | 7.0 | 0.00 | 0.00 | 0.00 | 66 | 1016.3 |
| 20260904235300 | 80 | 42 | 4.0 | 6.0 | 0.00 | 0.00 | 0.00 | 66 | 1016.1 |
| 20260904234300 | 81 | 31 | 6.0 | 8.0 | 0.00 | 0.00 | 0.00 | 65 | 1016.1 |
| 20260904215749 | 83 | 15 | 9.0 | 13.0 | 0.00 | 0.00 | 0.00 | 60 | 1015.3 |
| 20260904214749 | 83 | 4 | 8.0 | 11.0 | 0.00 | 0.00 | 0.00 | 60 | 1015.3 |
| 20260904205746 | 84 | 1 | 7.0 | 9.0 | 0.00 | 0.00 | 0.00 | 60 | 1015.3 |
| 20260904204245 | 85 | 1 | 6.0 | 9.0 | 0.00 | 0.00 | 0.00 | 57 | 1015.4 |
| 20260904203745 | 85 | 359 | 1.0 | 3.0 | 0.00 | 0.00 | 0.00 | 58 | 1015.4 |
| 20260904202244 | 84 | 80 | 3.0 | 6.0 | 0.00 | 0.00 | 0.00 | 59 | 1015.4 |
| 20260904201743 | 83 | 15 | 5.0 | 8.0 | 0.00 | 0.00 | 0.00 | 61 | 1015.4 |
| 20260904200243 | 83 | 176 | 5.0 | 7.0 | 0.00 | 0.00 | 0.00 | 62 | 1015.4 |